Zurück zum Katalog

STARLINK-31300

AktivKommunikationVLEO
NORAD 58878·PAYLOAD·🇺🇸 United States

Gestartet Jan 29, 2024 von Vandenberg Space Force Base

Loading…

Nächste Überflüge (nächste 24 Stunden)

TLE

AktuellSource: CelesTrak SupGP

Epoche: Sep 15, 2026, 02:33 UTC

1 58878C 24020C   26258.10673611 -.00029237  00000+0 -86390-3 0  2583
2 58878  53.1572 158.8681 0001315  93.2734 293.6300 15.34401816    13

Verfolge STARLINK-31300 in Echtzeit mit AllMySat

Download on the App Store